Weather History for KPDT - August, 2013

Change the Weather History Date:

Wednesday, August 28, 2013

  Actual Average Record
Temperature  
Mean Temperature 74 °F 69 °F  
Max Temperature 91 °F 84 °F 105 °F (1972)
Min Temperature 56 °F 55 °F 37 °F (1909)
Degree Days  
Heating Degree Days 0 1  
Month to date heating degree days 0 5  
Since 1 June heating degree days 80 99  
Since 1 July heating degree days 0 16  
Cooling Degree Days 9 5  
Month to date cooling degree days 233 209  
Year to date cooling degree days 687 557  
Since 1 June cooling degree days 656 534  
Growing Degree Days 22 (Base 50)    
Moisture  
Dew Point 47 °F    
Average Humidity 45    
Maximum Humidity 67    
Minimum Humidity 23    
Precipitation  
Precipitation 0.00 in 0.01 in 0.36 in (1927)
Month to date precipitation 0.32 0.33  
Year to date precipitation 5.29 8.04  
Snow  
Snow 0.00 in 0.00 in 0.00 in (2002)
Month to date snowfall T 0.0  
Year to date snowfall 0.2 7.7  
Since 1 July snowfall T 0.0  
Snow Depth 0.00 in    
Sea Level Pressure  
Sea Level Pressure 29.78 in    
Wind  
Wind Speed 7 mph (ESE)    
Max Wind Speed 17 mph    
Max Gust Speed 22 mph    
Visibility 10 miles    
Events      
T = Trace of Precipitation, MM = Missing Value Source: NWS Daily Summary

Daily Weather History Graph

Daily Weather History Graph

Search for Another Location

Airport or City:

Trip Planner

Search our weather history database for the weather conditions in past years. The results will help you decide how hot, cold, wet, or windy it might be!

Date:

Astronomy

Aug. 28, 2013 Rise Set
Actual Time 6:11 AM PDT 7:40 PM PDT
Civil Twilight 5:40 AM PDT 8:10 PM PDT
Nautical Twilight 5:03 AM PDT 8:48 PM PDT
Astronomical Twilight 4:22 AM PDT 9:28 PM PDT
Moon 11:59 PM PDT (8/28) 2:30 PM PDT (8/28)
Length of Visible Light 14h 30m
Length of Day
13h 28m
Last Quarter, 46% of the Moon is Illuminated
Aug 28
Last Quarter
Sep 5
New
Sep 12
First Quarter
Sep 19
Full
Sep 26
Last Quarter

Hourly Weather History & Observations

Time (PDT) Temp. Dew Point Humidity Pressure Visibility Wind Dir Wind Speed Gust Speed Precip Events Conditions
12:53 AM 63.0 °F 48.0 °F 58% 29.72 in 10.0 mi South 3.5 mph - N/A   Clear
1:53 AM 60.1 °F 46.9 °F 62% 29.72 in 10.0 mi ESE 5.8 mph - N/A   Clear
2:53 AM 59.0 °F 46.9 °F 64% 29.73 in 10.0 mi SSE 5.8 mph - N/A   Clear
3:53 AM 57.9 °F 46.9 °F 67% 29.73 in 10.0 mi SE 6.9 mph - N/A   Clear
4:53 AM 59.0 °F 46.9 °F 64% 29.74 in 10.0 mi SSE 4.6 mph - N/A   Clear
5:53 AM 59.0 °F 46.9 °F 64% 29.77 in 10.0 mi SE 4.6 mph - N/A   Clear
6:53 AM 57.9 °F 46.9 °F 67% 29.80 in 10.0 mi SE 5.8 mph - N/A   Clear
7:53 AM 63.0 °F 46.9 °F 56% 29.82 in 10.0 mi SE 8.1 mph - N/A   Clear
8:53 AM 69.1 °F 46.9 °F 45% 29.83 in 10.0 mi SSE 8.1 mph - N/A   Clear
9:53 AM 73.9 °F 48.9 °F 41% 29.83 in 10.0 mi ESE 4.6 mph - N/A   Clear
10:53 AM 79.0 °F 50.0 °F 36% 29.83 in 10.0 mi Variable 4.6 mph - N/A   Clear
11:53 AM 84.0 °F 48.9 °F 29% 29.83 in 10.0 mi Variable 6.9 mph - N/A   Clear
12:53 PM 86.0 °F 48.9 °F 28% 29.81 in 10.0 mi North 6.9 mph - N/A   Clear
1:53 PM 90.0 °F 48.9 °F 24% 29.80 in 10.0 mi WNW 10.4 mph - N/A   Clear
2:53 PM 89.1 °F 50.0 °F 26% 29.79 in 10.0 mi NW 10.4 mph - N/A   Clear
3:53 PM 89.1 °F 48.9 °F 25% 29.78 in 10.0 mi WNW 9.2 mph - N/A   Clear
4:53 PM 90.0 °F 48.0 °F 24% 29.77 in 10.0 mi NNW 10.4 mph 19.6 mph N/A   Clear
5:53 PM 89.1 °F 46.9 °F 23% 29.76 in 10.0 mi North 15.0 mph - N/A   Clear
6:53 PM 86.0 °F 46.0 °F 25% 29.76 in 10.0 mi NW 9.2 mph - N/A   Clear
7:53 PM 79.0 °F 46.0 °F 31% 29.77 in 10.0 mi NE 11.5 mph - N/A   Clear
8:53 PM 71.1 °F 45.0 °F 39% 29.79 in 10.0 mi North 9.2 mph - N/A   Clear
9:53 PM 72.0 °F 46.0 °F 40% 29.80 in 10.0 mi SE 6.9 mph - N/A   Clear
10:53 PM 73.9 °F 46.0 °F 37% 29.79 in 10.0 mi SSE 4.6 mph - N/A   Clear
11:53 PM 68.0 °F 46.0 °F 45% 29.80 in 10.0 mi SE 8.1 mph - N/A   Clear